Time,TemperatureF,DewpointF,PressureIn,WindDirection,WindDirectionDegrees,WindSpeedMPH,WindSpeedGustMPH,Humidity,HourlyPrecipIn,Conditions,Clouds,dailyrainin,SoftwareType,DateUTC
2013-04-24 00:01:00,43.3,40.0,29.99,North,356,5.0,16.0,88,0.00,,,0.00,oem by Ross Wheeler,2013-04-24 04:01:00,
2013-04-24 00:06:00,43.3,40.0,29.99,NE,56,9.0,16.0,88,0.00,,,0.00,oem by Ross Wheeler,2013-04-24 04:06:00,
2013-04-24 00:14:00,43.4,40.0,29.99,NNW,347,5.0,18.0,87,0.00,,,0.00,weatherlink.com 1.10,2013-04-24 04:14:00,
2013-04-24 00:16:00,43.4,40.0,29.99,NE,53,5.0,18.0,87,0.00,,,0.00,oem by Ross Wheeler,2013-04-24 04:16:00,
2013-04-24 00:26:00,43.4,40.0,29.98,North,354,4.0,18.0,87,0.00,,,0.00,oem by Ross Wheeler,2013-04-24 04:26:00,
2013-04-24 00:31:00,43.4,40.0,29.99,WNW,297,6.0,18.0,87,0.00,,,0.00,oem by Ross Wheeler,2013-04-24 04:31:00,
2013-04-24 00:41:00,43.4,40.0,29.98,North,6,2.0,14.0,87,0.00,,,0.00,oem by Ross Wheeler,2013-04-24 04:41:00,
2013-04-24 00:46:00,43.4,40.0,29.98,ENE,74,9.0,14.0,87,0.00,,,0.00,oem by Ross Wheeler,2013-04-24 04:46:00,
2013-04-24 00:56:00,43.5,40.0,29.98,East,84,2.0,12.0,87,0.00,,,0.00,oem by Ross Wheeler,2013-04-24 04:56:00,
2013-04-24 00:59:00,43.5,40.0,29.98,WSW,249,5.0,16.0,87,0.00,,,0.00,weatherlink.com 1.10,2013-04-24 04:59:00,
2013-04-24 01:06:00,43.5,40.0,29.97,ENE,58,2.0,16.0,87,0.00,,,0.00,oem by Ross Wheeler,2013-04-24 05:06:00,
2013-04-24 01:11:00,43.5,40.0,29.97,NW,320,3.0,13.0,87,0.00,,,0.00,oem by Ross Wheeler,2013-04-24 05:11:00,
2013-04-24 01:16:00,43.5,40.0,29.97,NE,56,3.0,15.0,86,0.00,,,0.00,oem by Ross Wheeler,2013-04-24 05:16:00,
2013-04-24 01:25:00,43.5,40.0,29.97,NW,309,0.0,17.0,86,0.00,,,0.00,oem by Ross Wheeler,2013-04-24 05:25:00,
2013-04-24 01:31:00,43.5,40.0,29.96,NE,34,6.0,17.0,86,0.00,,,0.00,oem by Ross Wheeler,2013-04-24 05:31:00,
2013-04-24 01:40:00,43.6,40.0,29.96,NE,40,4.0,12.0,86,0.00,,,0.00,oem by Ross Wheeler,2013-04-24 05:40:00,
2013-04-24 01:46:00,43.7,40.0,29.96,NE,44,3.0,10.0,86,0.00,,,0.00,weatherlink.com 1.10,2013-04-24 05:46:00,
2013-04-24 01:55:00,43.7,40.0,29.96,NW,321,1.0,8.0,86,0.00,,,0.00,oem by Ross Wheeler,2013-04-24 05:55:00,
2013-04-24 02:01:00,43.7,40.0,29.96,NW,307,1.0,9.0,86,0.00,,,0.00,oem by Ross Wheeler,2013-04-24 06:01:00,
2013-04-24 02:10:00,43.7,40.0,29.95,NNE,27,3.0,9.0,86,0.00,,,0.00,oem by Ross Wheeler,2013-04-24 06:10:00,
2013-04-24 02:15:00,43.7,40.0,29.95,NNW,348,1.0,12.0,86,0.00,,,0.00,weatherlink.com 1.10,2013-04-24 06:15:00,
2013-04-24 02:25:00,43.8,40.0,29.95,NW,317,5.0,8.0,86,0.00,,,0.00,oem by Ross Wheeler,2013-04-24 06:25:00,
2013-04-24 02:31:00,43.8,40.0,29.95,NE,41,4.0,12.0,86,0.00,,,0.00,oem by Ross Wheeler,2013-04-24 06:31:00,
2013-04-24 02:40:00,43.8,40.0,29.95,NW,321,2.0,12.0,86,0.00,,,0.00,oem by Ross Wheeler,2013-04-24 06:40:00,
2013-04-24 02:46:00,43.8,40.0,29.94,ENE,64,4.0,13.0,86,0.00,,,0.00,oem by Ross Wheeler,2013-04-24 06:46:00,
2013-04-24 02:55:00,43.9,40.0,29.94,NNE,19,12.0,13.0,86,0.00,,,0.00,oem by Ross Wheeler,2013-04-24 06:55:00,
2013-04-24 03:01:00,43.9,40.0,29.94,West,262,2.0,13.0,86,0.00,,,0.00,oem by Ross Wheeler,2013-04-24 07:01:00,
2013-04-24 03:10:00,43.9,40.0,29.93,NW,319,9.0,13.0,86,0.00,,,0.00,oem by Ross Wheeler,2013-04-24 07:10:00,
2013-04-24 03:16:00,43.9,40.0,29.92,WNW,302,12.0,12.0,86,0.00,,,0.00,oem by Ross Wheeler,2013-04-24 07:16:00,
2013-04-24 03:25:00,43.8,40.0,29.92,NE,47,13.0,13.0,86,0.00,,,0.00,oem by Ross Wheeler,2013-04-24 07:25:00,
2013-04-24 03:31:00,43.9,40.0,29.92,NNW,340,5.0,12.0,86,0.00,,,0.00,oem by Ross Wheeler,2013-04-24 07:31:00,
2013-04-24 03:40:00,43.8,40.0,29.92,ESE,109,9.0,16.0,87,0.00,,,0.00,oem by Ross Wheeler,2013-04-24 07:40:00,
2013-04-24 03:46:00,43.8,40.0,29.92,NNE,20,9.0,15.0,87,0.00,,,0.00,oem by Ross Wheeler,2013-04-24 07:46:00,
2013-04-24 03:55:00,43.8,40.0,29.91,NW,312,5.0,15.0,87,0.00,,,0.00,oem by Ross Wheeler,2013-04-24 07:55:00,
2013-04-24 04:01:00,43.7,40.0,29.91,NNW,334,4.0,12.0,87,0.00,,,0.00,oem by Ross Wheeler,2013-04-24 08:01:00,
2013-04-24 04:10:00,43.7,40.0,29.92,NNW,348,3.0,12.0,87,0.00,,,0.00,oem by Ross Wheeler,2013-04-24 08:10:00,
2013-04-24 04:16:00,43.7,40.0,29.92,NNE,30,4.0,9.0,87,0.00,,,0.00,oem by Ross Wheeler,2013-04-24 08:16:00,
2013-04-24 04:25:00,43.8,40.0,29.93,NNW,339,2.0,11.0,87,0.00,,,0.00,oem by Ross Wheeler,2013-04-24 08:25:00,
2013-04-24 04:31:00,43.8,40.0,29.93,NNE,16,2.0,9.0,87,0.00,,,0.00,oem by Ross Wheeler,2013-04-24 08:31:00,
2013-04-24 04:40:00,43.9,40.0,29.94,NNW,342,6.0,9.0,87,0.00,,,0.00,oem by Ross Wheeler,2013-04-24 08:40:00,
2013-04-24 04:46:00,43.9,40.0,29.94,NW,306,4.0,9.0,87,0.00,,,0.00,oem by Ross Wheeler,2013-04-24 08:46:00,
2013-04-24 04:55:00,44.0,40.0,29.95,WNW,288,9.0,14.0,87,0.00,,,0.00,oem by Ross Wheeler,2013-04-24 08:55:00,
2013-04-24 05:01:00,44.1,41.0,29.95,NNE,29,4.0,14.0,87,0.00,,,0.00,oem by Ross Wheeler,2013-04-24 09:01:00,
2013-04-24 05:10:00,44.1,41.0,29.95,West,264,3.0,8.0,87,0.00,,,0.00,oem by Ross Wheeler,2013-04-24 09:10:00,
2013-04-24 05:16:00,44.2,41.0,29.95,NW,324,4.0,8.0,87,0.00,,,0.00,oem by Ross Wheeler,2013-04-24 09:16:00,
2013-04-24 05:25:00,44.1,41.0,29.95,WNW,291,9.0,11.0,87,0.00,,,0.00,oem by Ross Wheeler,2013-04-24 09:25:00,
2013-04-24 05:31:00,44.1,41.0,29.95,West,271,2.0,11.0,87,0.00,,,0.00,oem by Ross Wheeler,2013-04-24 09:31:00,
2013-04-24 05:40:00,44.1,41.0,29.95,West,276,4.0,10.0,87,0.00,,,0.00,oem by Ross Wheeler,2013-04-24 09:40:00,
2013-04-24 05:46:00,44.1,41.0,29.95,WNW,284,3.0,7.0,87,0.00,,,0.00,oem by Ross Wheeler,2013-04-24 09:46:00,
2013-04-24 05:55:00,44.1,41.0,29.95,NNW,335,1.0,8.0,87,0.00,,,0.00,oem by Ross Wheeler,2013-04-24 09:55:00,
2013-04-24 06:01:00,44.0,40.0,29.95,NNW,328,3.0,7.0,87,0.00,,,0.00,oem by Ross Wheeler,2013-04-24 10:01:00,
2013-04-24 06:10:00,44.0,41.0,29.94,NNE,15,5.0,7.0,88,0.00,,,0.00,oem by Ross Wheeler,2013-04-24 10:10:00,
2013-04-24 06:16:00,43.9,41.0,29.95,NNE,26,5.0,6.0,88,0.00,,,0.00,oem by Ross Wheeler,2013-04-24 10:16:00,
2013-04-24 06:25:00,43.9,41.0,29.94,NNE,30,8.0,11.0,88,0.00,,,0.00,oem by Ross Wheeler,2013-04-24 10:25:00,
2013-04-24 06:31:00,43.9,41.0,29.95,NW,317,1.0,11.0,88,0.00,,,0.00,oem by Ross Wheeler,2013-04-24 10:31:00,
2013-04-24 06:40:00,43.9,41.0,29.97,NW,318,1.0,12.0,88,0.00,,,0.00,oem by Ross Wheeler,2013-04-24 10:40:00,
2013-04-24 06:46:00,44.0,41.0,29.98,NW,306,0.0,10.0,88,0.00,,,0.00,oem by Ross Wheeler,2013-04-24 10:46:00,
2013-04-24 06:55:00,43.9,41.0,29.99,WNW,302,2.0,7.0,88,0.00,,,0.00,oem by Ross Wheeler,2013-04-24 10:55:00,
2013-04-24 07:00:00,43.8,41.0,29.99,West,272,2.0,6.0,88,0.00,,,0.00,weatherlink.com 1.10,2013-04-24 11:00:00,
2013-04-24 07:05:00,43.8,41.0,29.99,WNW,283,5.0,6.0,88,0.00,,,0.00,oem by Ross Wheeler,2013-04-24 11:05:00,
2013-04-24 07:10:00,43.8,41.0,29.99,WNW,291,3.0,6.0,88,0.00,,,0.00,oem by Ross Wheeler,2013-04-24 11:10:00,
2013-04-24 07:16:00,43.8,41.0,29.99,WNW,283,3.0,7.0,88,0.00,,,0.00,oem by Ross Wheeler,2013-04-24 11:16:00,
2013-04-24 07:25:00,43.8,41.0,30.00,NW,307,2.0,10.0,88,0.00,,,0.00,oem by Ross Wheeler,2013-04-24 11:25:00,
2013-04-24 07:30:00,43.9,41.0,30.00,WNW,294,0.0,7.0,88,0.00,,,0.00,weatherlink.com 1.10,2013-04-24 11:30:00,
2013-04-24 07:35:00,44.0,41.0,30.00,NNW,340,0.0,6.0,88,0.00,,,0.00,oem by Ross Wheeler,2013-04-24 11:35:00,
2013-04-24 07:40:00,44.0,40.0,30.00,WSW,255,4.0,10.0,87,0.00,,,0.00,oem by Ross Wheeler,2013-04-24 11:40:00,
2013-04-24 07:45:00,44.1,41.0,29.99,West,274,1.0,10.0,87,0.00,,,0.00,weatherlink.com 1.10,2013-04-24 11:45:00,
2013-04-24 07:50:00,44.3,41.0,30.00,West,271,2.0,7.0,87,0.00,,,0.00,oem by Ross Wheeler,2013-04-24 11:50:00,
2013-04-24 08:00:00,44.5,41.0,29.99,NW,315,2.0,8.0,87,0.00,,,0.00,weatherlink.com 1.10,2013-04-24 12:00:00,
2013-04-24 08:10:00,44.8,41.0,29.99,NNE,27,3.0,8.0,86,0.00,,,0.00,oem by Ross Wheeler,2013-04-24 12:10:00,
2013-04-24 08:15:00,44.9,41.0,29.99,SW,224,0.0,8.0,86,0.00,,,0.00,weatherlink.com 1.10,2013-04-24 12:15:00,
2013-04-24 08:25:00,45.4,41.0,30.00,WNW,301,3.0,9.0,85,0.00,,,0.00,oem by Ross Wheeler,2013-04-24 12:25:00,
2013-04-24 08:31:00,45.7,42.0,30.00,West,263,4.0,8.0,85,0.00,,,0.00,weatherlink.com 1.10,2013-04-24 12:31:00,
2013-04-24 08:40:00,46.2,42.0,30.00,WSW,254,4.0,9.0,84,0.00,,,0.00,oem by Ross Wheeler,2013-04-24 12:40:00,
2013-04-24 08:46:00,46.6,42.0,30.00,NW,312,3.0,9.0,83,0.00,,,0.00,weatherlink.com 1.10,2013-04-24 12:46:00,
2013-04-24 08:55:00,46.9,42.0,29.99,West,270,2.0,12.0,83,0.00,,,0.00,oem by Ross Wheeler,2013-04-24 12:55:00,
2013-04-24 09:01:00,47.5,42.0,29.99,WNW,297,2.0,7.0,81,0.00,,,0.00,weatherlink.com 1.10,2013-04-24 13:01:00,
2013-04-24 09:10:00,48.7,43.0,29.98,West,271,6.0,6.0,80,0.00,,,0.00,oem by Ross Wheeler,2013-04-24 13:10:00,
2013-04-24 09:16:00,48.8,43.0,29.98,WNW,283,2.0,8.0,80,0.00,,,0.00,weatherlink.com 1.10,2013-04-24 13:16:00,
2013-04-24 09:25:00,49.6,43.0,29.98,West,273,2.0,6.0,78,0.00,,,0.00,oem by Ross Wheeler,2013-04-24 13:25:00,
2013-04-24 09:31:00,49.8,43.0,29.98,West,270,6.0,10.0,77,0.00,,,0.00,oem by Ross Wheeler,2013-04-24 13:31:00,
2013-04-24 09:40:00,50.1,44.0,29.97,NNE,16,1.0,7.0,78,0.00,,,0.00,oem by Ross Wheeler,2013-04-24 13:40:00,
2013-04-24 09:46:00,50.9,44.0,29.97,NW,312,3.0,8.0,76,0.00,,,0.00,oem by Ross Wheeler,2013-04-24 13:46:00,
2013-04-24 09:55:00,51.4,44.0,29.97,NW,318,4.0,9.0,75,0.00,,,0.00,oem by Ross Wheeler,2013-04-24 13:55:00,
2013-04-24 10:01:00,51.8,44.0,29.97,SW,228,5.0,9.0,75,0.00,,,0.00,oem by Ross Wheeler,2013-04-24 14:01:00,
2013-04-24 10:11:00,52.4,44.0,29.97,WNW,288,3.0,6.0,74,0.00,,,0.00,oem by Ross Wheeler,2013-04-24 14:11:00,
2013-04-24 10:16:00,52.7,45.0,29.97,West,277,2.0,7.0,74,0.00,,,0.00,weatherlink.com 1.10,2013-04-24 14:16:00,
2013-04-24 10:25:00,52.1,44.0,29.97,SE,141,2.0,8.0,75,0.00,,,0.00,oem by Ross Wheeler,2013-04-24 14:25:00,
2013-04-24 10:31:00,51.3,44.0,29.96,SW,217,1.0,8.0,77,0.00,,,0.00,oem by Ross Wheeler,2013-04-24 14:31:00,
2013-04-24 10:40:00,50.9,45.0,29.96,SSW,202,0.0,9.0,79,0.00,,,0.00,oem by Ross Wheeler,2013-04-24 14:40:00,
2013-04-24 10:46:00,51.4,45.0,29.96,South,184,1.0,8.0,78,0.00,,,0.00,oem by Ross Wheeler,2013-04-24 14:46:00,
2013-04-24 10:55:00,51.2,45.0,29.97,West,272,9.0,12.0,78,0.00,,,0.00,oem by Ross Wheeler,2013-04-24 14:55:00,
2013-04-24 11:01:00,51.0,44.0,29.97,SSW,194,3.0,12.0,78,0.00,,,0.00,oem by Ross Wheeler,2013-04-24 15:01:00,
2013-04-24 11:11:00,51.0,45.0,29.97,SW,235,1.0,12.0,79,0.00,,,0.00,oem by Ross Wheeler,2013-04-24 15:11:00,
2013-04-24 11:16:00,50.7,44.0,29.96,WSW,243,10.0,16.0,78,0.00,,,0.00,oem by Ross Wheeler,2013-04-24 15:16:00,
2013-04-24 11:26:00,51.1,44.0,29.96,WSW,241,4.0,13.0,78,0.00,,,0.00,oem by Ross Wheeler,2013-04-24 15:26:00,
2013-04-24 11:31:00,51.4,44.0,29.96,West,269,7.0,13.0,77,0.00,,,0.00,oem by Ross Wheeler,2013-04-24 15:31:00,
2013-04-24 11:41:00,51.6,45.0,29.95,WNW,283,6.0,11.0,77,0.00,,,0.00,oem by Ross Wheeler,2013-04-24 15:41:00,
2013-04-24 11:46:00,51.5,45.0,29.95,SW,223,9.0,17.0,77,0.00,,,0.00,oem by Ross Wheeler,2013-04-24 15:46:00,
2013-04-24 11:56:00,52.2,45.0,29.95,SW,214,8.0,12.0,76,0.00,,,0.00,oem by Ross Wheeler,2013-04-24 15:56:00,
2013-04-24 12:01:00,52.7,45.0,29.95,SW,232,5.0,12.0,75,0.00,,,0.00,oem by Ross Wheeler,2013-04-24 16:01:00,
2013-04-24 12:10:00,54.3,46.0,29.94,WSW,249,8.0,10.0,74,0.00,,,0.00,oem by Ross Wheeler,2013-04-24 16:10:00,
2013-04-24 12:16:00,53.5,45.0,29.94,SW,228,8.0,12.0,72,0.00,,,0.00,oem by Ross Wheeler,2013-04-24 16:16:00,
2013-04-24 12:25:00,54.1,45.0,29.93,West,280,10.0,11.0,72,0.00,,,0.00,oem by Ross Wheeler,2013-04-24 16:25:00,
2013-04-24 12:31:00,54.2,46.0,29.93,SSW,204,1.0,11.0,74,0.00,,,0.00,oem by Ross Wheeler,2013-04-24 16:31:00,
2013-04-24 12:41:00,55.4,45.0,29.92,West,277,5.0,11.0,69,0.00,,,0.00,oem by Ross Wheeler,2013-04-24 16:41:00,
2013-04-24 12:46:00,54.9,45.0,29.92,West,271,3.0,11.0,69,0.00,,,0.00,oem by Ross Wheeler,2013-04-24 16:46:00,
2013-04-24 12:55:00,55.2,45.0,29.92,South,172,3.0,13.0,69,0.00,,,0.00,oem by Ross Wheeler,2013-04-24 16:55:00,
2013-04-24 13:01:00,54.9,45.0,29.92,West,274,7.0,13.0,69,0.00,,,0.00,oem by Ross Wheeler,2013-04-24 17:01:00,
2013-04-24 13:10:00,55.0,45.0,29.92,SSE,155,2.0,13.0,70,0.00,,,0.00,oem by Ross Wheeler,2013-04-24 17:10:00,
2013-04-24 13:16:00,55.3,45.0,29.91,SSE,148,4.0,12.0,69,0.00,,,0.00,oem by Ross Wheeler,2013-04-24 17:16:00,
2013-04-24 13:25:00,55.8,45.0,29.91,West,263,6.0,13.0,67,0.00,,,0.00,oem by Ross Wheeler,2013-04-24 17:25:00,
2013-04-24 13:31:00,56.0,45.0,29.91,West,273,3.0,13.0,67,0.00,,,0.00,oem by Ross Wheeler,2013-04-24 17:31:00,
2013-04-24 13:41:00,57.7,45.0,29.90,SE,134,2.0,10.0,64,0.00,,,0.00,oem by Ross Wheeler,2013-04-24 17:41:00,
2013-04-24 13:46:00,58.2,46.0,29.90,SSW,211,3.0,9.0,64,0.00,,,0.00,oem by Ross Wheeler,2013-04-24 17:46:00,
2013-04-24 13:55:00,58.2,46.0,29.90,SE,143,1.0,9.0,64,0.00,,,0.00,oem by Ross Wheeler,2013-04-24 17:55:00,
2013-04-24 14:01:00,58.1,45.0,29.90,SW,214,4.0,11.0,63,0.00,,,0.00,oem by Ross Wheeler,2013-04-24 18:01:00,
2013-04-24 14:10:00,58.6,46.0,29.89,West,280,2.0,12.0,63,0.00,,,0.00,oem by Ross Wheeler,2013-04-24 18:10:00,
2013-04-24 14:16:00,59.3,47.0,29.89,SSW,205,6.0,10.0,64,0.00,,,0.00,oem by Ross Wheeler,2013-04-24 18:16:00,
2013-04-24 14:25:00,58.9,47.0,29.89,South,170,1.0,10.0,65,0.00,,,0.00,oem by Ross Wheeler,2013-04-24 18:25:00,
2013-04-24 14:31:00,58.2,47.0,29.89,SW,228,3.0,9.0,66,0.00,,,0.00,oem by Ross Wheeler,2013-04-24 18:31:00,
2013-04-24 14:40:00,57.4,47.0,29.89,SSE,160,2.0,10.0,69,0.00,,,0.00,oem by Ross Wheeler,2013-04-24 18:40:00,
2013-04-24 14:46:00,56.8,47.0,29.89,WSW,252,2.0,12.0,69,0.00,,,0.00,oem by Ross Wheeler,2013-04-24 18:46:00,
2013-04-24 14:55:00,58.1,47.0,29.89,SSE,165,2.0,5.0,67,0.00,,,0.00,oem by Ross Wheeler,2013-04-24 18:55:00,
2013-04-24 15:01:00,59.2,47.0,29.89,WSW,245,1.0,8.0,64,0.00,,,0.00,oem by Ross Wheeler,2013-04-24 19:01:00,
2013-04-24 15:11:00,59.4,46.0,29.89,SW,218,1.0,10.0,62,0.00,,,0.00,oem by Ross Wheeler,2013-04-24 19:11:00,
2013-04-24 15:16:00,59.9,46.0,29.89,WNW,290,1.0,10.0,61,0.00,,,0.00,oem by Ross Wheeler,2013-04-24 19:16:00,
2013-04-24 15:25:00,59.9,46.0,29.89,SW,222,3.0,9.0,61,0.00,,,0.00,oem by Ross Wheeler,2013-04-24 19:25:00,
2013-04-24 15:31:00,59.5,46.0,29.89,WSW,245,3.0,8.0,62,0.00,,,0.00,oem by Ross Wheeler,2013-04-24 19:31:00,
2013-04-24 15:40:00,59.4,48.0,29.88,SE,145,2.0,8.0,66,0.00,,,0.00,oem by Ross Wheeler,2013-04-24 19:40:00,
2013-04-24 15:46:00,59.3,48.0,29.88,West,271,3.0,7.0,66,0.00,,,0.00,oem by Ross Wheeler,2013-04-24 19:46:00,
2013-04-24 15:55:00,59.8,49.0,29.88,West,274,7.0,7.0,67,0.00,,,0.00,oem by Ross Wheeler,2013-04-24 19:55:00,
2013-04-24 16:01:00,59.5,48.0,29.88,South,191,4.0,8.0,66,0.00,,,0.00,oem by Ross Wheeler,2013-04-24 20:01:00,
2013-04-24 16:11:00,59.0,48.0,29.88,South,179,6.0,8.0,67,0.00,,,0.00,oem by Ross Wheeler,2013-04-24 20:11:00,
2013-04-24 16:16:00,58.8,48.0,29.88,SSE,166,0.0,9.0,67,0.00,,,0.00,oem by Ross Wheeler,2013-04-24 20:16:00,
2013-04-24 16:26:00,58.6,48.0,29.89,South,190,2.0,10.0,68,0.00,,,0.00,oem by Ross Wheeler,2013-04-24 20:26:00,
2013-04-24 16:31:00,58.6,48.0,29.88,SSW,196,5.0,9.0,68,0.00,,,0.00,oem by Ross Wheeler,2013-04-24 20:31:00,
2013-04-24 16:40:00,58.4,48.0,29.88,SW,217,3.0,9.0,68,0.00,,,0.00,oem by Ross Wheeler,2013-04-24 20:40:00,
2013-04-24 16:46:00,58.8,48.0,29.88,SSE,164,3.0,5.0,68,0.00,,,0.00,oem by Ross Wheeler,2013-04-24 20:46:00,
2013-04-24 16:55:00,58.3,48.0,29.87,SW,226,2.0,9.0,68,0.00,,,0.00,oem by Ross Wheeler,2013-04-24 20:55:00,
2013-04-24 17:01:00,58.4,48.0,29.88,South,184,2.0,6.0,69,0.00,,,0.00,oem by Ross Wheeler,2013-04-24 21:01:00,
2013-04-24 17:10:00,58.2,48.0,29.87,SSW,207,3.0,12.0,68,0.00,,,0.00,oem by Ross Wheeler,2013-04-24 21:10:00,
2013-04-24 17:16:00,58.1,47.0,29.88,SE,134,2.0,7.0,67,0.00,,,0.00,oem by Ross Wheeler,2013-04-24 21:16:00,
2013-04-24 17:25:00,57.0,47.0,29.88,SSW,212,2.0,9.0,70,0.00,,,0.00,oem by Ross Wheeler,2013-04-24 21:25:00,
2013-04-24 17:31:00,56.8,47.0,29.89,South,191,3.0,9.0,71,0.00,,,0.00,oem by Ross Wheeler,2013-04-24 21:31:00,
2013-04-24 17:41:00,56.3,47.0,29.89,WSW,243,2.0,8.0,72,0.00,,,0.00,oem by Ross Wheeler,2013-04-24 21:41:00,
2013-04-24 17:46:00,56.2,47.0,29.89,SW,233,1.0,8.0,72,0.00,,,0.00,oem by Ross Wheeler,2013-04-24 21:46:00,
2013-04-24 17:56:00,56.0,47.0,29.89,SSW,207,2.0,11.0,72,0.00,,,0.00,oem by Ross Wheeler,2013-04-24 21:56:00,
2013-04-24 18:01:00,55.6,47.0,29.89,SE,134,3.0,8.0,73,0.00,,,0.00,oem by Ross Wheeler,2013-04-24 22:01:00,
2013-04-24 18:10:00,54.9,47.0,29.89,SSE,152,1.0,9.0,74,0.00,,,0.00,oem by Ross Wheeler,2013-04-24 22:10:00,
2013-04-24 18:16:00,54.9,47.0,29.89,SSW,198,1.0,7.0,74,0.00,,,0.00,oem by Ross Wheeler,2013-04-24 22:16:00,
2013-04-24 18:26:00,54.0,47.0,29.89,South,176,4.0,9.0,76,0.00,,,0.00,oem by Ross Wheeler,2013-04-24 22:26:00,
2013-04-24 18:31:00,53.3,47.0,29.89,WSW,249,3.0,8.0,78,0.00,,,0.00,oem by Ross Wheeler,2013-04-24 22:31:00,
2013-04-24 18:41:00,52.1,46.0,29.89,WNW,300,2.0,9.0,80,0.00,,,0.00,oem by Ross Wheeler,2013-04-24 22:41:00,
2013-04-24 18:46:00,51.2,46.0,29.89,SSE,166,1.0,10.0,82,0.00,,,0.00,oem by Ross Wheeler,2013-04-24 22:46:00,
2013-04-24 18:56:00,50.1,46.0,29.90,SSE,155,2.0,7.0,85,0.00,,,0.00,oem by Ross Wheeler,2013-04-24 22:56:00,
2013-04-24 19:01:00,49.3,45.0,29.90,SSE,151,0.0,7.0,86,0.00,,,0.00,oem by Ross Wheeler,2013-04-24 23:01:00,
2013-04-24 19:11:00,48.6,46.0,29.90,SSE,166,1.0,11.0,89,0.00,,,0.00,oem by Ross Wheeler,2013-04-24 23:11:00,
2013-04-24 19:16:00,48.3,45.0,29.89,SW,218,2.0,11.0,89,0.00,,,0.00,oem by Ross Wheeler,2013-04-24 23:16:00,
2013-04-24 19:26:00,48.1,45.0,29.89,SSW,200,2.0,5.0,90,0.00,,,0.00,oem by Ross Wheeler,2013-04-24 23:26:00,
2013-04-24 19:31:00,47.9,46.0,29.89,WSW,238,3.0,6.0,91,0.00,,,0.00,oem by Ross Wheeler,2013-04-24 23:31:00,
2013-04-24 19:41:00,47.7,46.0,29.89,SW,236,1.0,4.0,92,0.00,,,0.00,oem by Ross Wheeler,2013-04-24 23:41:00,
2013-04-24 19:47:00,47.7,46.0,29.88,SSE,158,0.0,4.0,92,0.00,,,0.00,weatherlink.com 1.10,2013-04-24 23:47:00,
2013-04-24 19:56:00,47.5,45.0,29.89,South,183,0.0,3.0,92,0.00,,,0.00,oem by Ross Wheeler,2013-04-24 23:56:00,
2013-04-24 20:01:00,47.5,45.0,29.89,SSE,158,1.0,3.0,92,0.00,,,0.00,oem by Ross Wheeler,2013-04-25 00:01:00,
2013-04-24 20:11:00,47.3,45.0,29.90,SE,132,1.0,3.0,93,0.00,,,0.00,oem by Ross Wheeler,2013-04-25 00:11:00,
2013-04-24 20:16:00,47.2,45.0,29.90,SSW,197,0.0,3.0,93,0.00,,,0.00,oem by Ross Wheeler,2013-04-25 00:16:00,
2013-04-24 20:26:00,47.0,45.0,29.90,SE,146,1.0,4.0,93,0.00,,,0.00,oem by Ross Wheeler,2013-04-25 00:26:00,
2013-04-24 20:31:00,47.0,45.0,29.90,SE,135,0.0,5.0,93,0.00,,,0.00,oem by Ross Wheeler,2013-04-25 00:31:00,
2013-04-24 20:36:00,46.9,45.0,29.90,South,191,0.0,3.0,93,0.00,,,0.00,oem by Ross Wheeler,2013-04-25 00:36:00,
2013-04-24 20:46:00,46.9,45.0,29.90,SSW,210,0.0,4.0,94,0.00,,,0.00,oem by Ross Wheeler,2013-04-25 00:46:00,
2013-04-24 20:56:00,46.9,45.0,29.91,SE,146,0.0,4.0,94,0.00,,,0.00,oem by Ross Wheeler,2013-04-25 00:56:00,
2013-04-24 21:01:00,47.0,45.0,29.92,SSW,212,0.0,5.0,94,0.00,,,0.00,oem by Ross Wheeler,2013-04-25 01:01:00,
2013-04-24 21:11:00,47.2,46.0,29.93,SW,226,0.0,6.0,95,0.00,,,0.00,oem by Ross Wheeler,2013-04-25 01:11:00,
2013-04-24 21:16:00,47.3,46.0,29.93,SSW,208,2.0,8.0,95,0.00,,,0.00,oem by Ross Wheeler,2013-04-25 01:16:00,
2013-04-24 21:26:00,47.5,46.0,29.94,SSE,151,0.0,6.0,94,0.00,,,0.00,oem by Ross Wheeler,2013-04-25 01:26:00,
2013-04-24 21:31:00,47.5,46.0,29.94,SSE,166,1.0,4.0,94,0.00,,,0.00,oem by Ross Wheeler,2013-04-25 01:31:00,
2013-04-24 21:41:00,47.5,46.0,29.94,South,172,2.0,5.0,95,0.00,,,0.00,oem by Ross Wheeler,2013-04-25 01:41:00,
2013-04-24 21:46:00,47.5,46.0,29.93,South,169,0.0,4.0,95,0.00,,,0.00,oem by Ross Wheeler,2013-04-25 01:46:00,
2013-04-24 21:56:00,47.5,46.0,29.93,WNW,287,1.0,7.0,95,0.00,,,0.00,oem by Ross Wheeler,2013-04-25 01:56:00,
2013-04-24 22:01:00,47.5,46.0,29.93,SSW,194,0.0,3.0,95,0.00,,,0.00,oem by Ross Wheeler,2013-04-25 02:01:00,
2013-04-24 22:11:00,47.5,46.0,29.92,SSE,160,0.0,4.0,95,0.00,,,0.00,oem by Ross Wheeler,2013-04-25 02:11:00,
2013-04-24 22:16:00,47.6,46.0,29.92,SE,143,0.0,3.0,95,0.00,,,0.00,oem by Ross Wheeler,2013-04-25 02:16:00,
2013-04-24 22:21:00,47.7,46.0,29.92,South,191,0.0,3.0,95,0.00,,,0.00,oem by Ross Wheeler,2013-04-25 02:21:00,
2013-04-24 22:31:00,47.9,47.0,29.92,South,175,1.0,3.0,96,0.00,,,0.00,oem by Ross Wheeler,2013-04-25 02:31:00,
2013-04-24 22:41:00,48.0,47.0,29.91,South,185,0.0,3.0,96,0.00,,,0.00,oem by Ross Wheeler,2013-04-25 02:41:00,
2013-04-24 22:46:00,48.1,47.0,29.91,WSW,248,0.0,3.0,96,0.00,,,0.00,oem by Ross Wheeler,2013-04-25 02:46:00,
2013-04-24 22:56:00,48.6,48.0,29.91,SSE,167,1.0,7.0,96,0.00,,,0.00,oem by Ross Wheeler,2013-04-25 02:56:00,
2013-04-24 23:01:00,48.8,48.0,29.91,SSW,200,0.0,7.0,96,0.00,,,0.00,oem by Ross Wheeler,2013-04-25 03:01:00,
2013-04-24 23:11:00,49.1,48.0,29.91,South,187,1.0,7.0,97,0.00,,,0.00,oem by Ross Wheeler,2013-04-25 03:11:00,
2013-04-24 23:16:00,49.6,49.0,29.90,WSW,242,0.0,7.0,97,0.00,,,0.00,oem by Ross Wheeler,2013-04-25 03:16:00,
2013-04-24 23:26:00,49.9,49.0,29.90,ESE,117,3.0,6.0,97,0.00,,,0.00,oem by Ross Wheeler,2013-04-25 03:26:00,
2013-04-24 23:31:00,50.1,49.0,29.91,SSE,160,1.0,8.0,97,0.00,,,0.00,oem by Ross Wheeler,2013-04-25 03:31:00,
2013-04-24 23:41:00,50.2,49.0,29.91,SSE,167,3.0,7.0,96,0.00,,,0.00,oem by Ross Wheeler,2013-04-25 03:41:00,
2013-04-24 23:46:00,50.3,49.0,29.91,WSW,252,1.0,7.0,96,0.00,,,0.00,oem by Ross Wheeler,2013-04-25 03:46:00,
2013-04-24 23:51:00,50.3,49.0,29.90,WSW,242,2.0,5.0,96,0.00,,,0.00,oem by Ross Wheeler,2013-04-25 03:51:00,